Mora, MN

2:47 PM CDT on March 23, 2017 (GMT -0500)
Mora Municipal

Weather History for KJMR - January, 2012

Change the Weather History Date:

Thursday, January 12, 2012

  Actual Average Record
Temperature  
Mean Temperature 11 °F -  
Max Temperature 12 °F 18 °F 43 °F (1958)
Min Temperature 10 °F -5 °F -37 °F (1977)
Degree Days  
Heating Degree Days 54    
Moisture  
Dew Point 3 °F    
Average Humidity 68    
Maximum Humidity 73    
Minimum Humidity 62    
Precipitation  
Precipitation 0.00 in - - ()
Sea Level Pressure  
Sea Level Pressure 29.84 in    
Wind  
Wind Speed 15 mph (NNW)    
Max Wind Speed 20 mph    
Max Gust Speed 29 mph    
Visibility 10 miles    
Events Snow    
Averages and records for this station are not official NWS values.
T = Trace of Precipitation, MM = Missing Value Source: NWS Daily Summary

Daily Weather History Graph

Daily Weather History Graph

Search for Another Location

Airport or City:

Trip Planner

Search our weather history database for the weather conditions in past years. The results will help you decide how hot, cold, wet, or windy it might be!

Date:

Astronomy

Jan. 12, 2012 Rise Set
Actual Time 7:52 AM CST 4:50 PM CST
Civil Twilight 7:18 AM CST 5:24 PM CST
Nautical Twilight 6:41 AM CST 6:01 PM CST
Astronomical Twilight 6:05 AM CST 6:37 PM CST
Moon 9:12 PM CST (1/12) 9:22 AM CST (1/12)
Length of Visible Light 10h 05m
Length of Day
8h 58m
Waning Gibbous, 87% of the Moon is Illuminated
Jan 12
Waning Gibbous
Jan 16
Last Quarter
Jan 23
New
Jan 30
First Quarter
Feb 7
Full

Hourly Weather History & Observations

Time (CST) Temp. Windchill Dew Point Humidity Pressure Visibility Wind Dir Wind Speed Gust Speed Precip Events Conditions
12:15 AM 12.2 °F -3.7 °F 5.0 °F 73% 29.85 in 10.0 mi NNW 15.0 mph 21.9 mph N/A   Overcast
12:35 AM 12.2 °F -5.8 °F 5.0 °F 73% 29.86 in 10.0 mi NNW 19.6 mph - N/A   Overcast
12:55 AM 12.2 °F -2.5 °F 5.0 °F 73% 29.85 in 10.0 mi NNW 12.7 mph 24.2 mph N/A   Overcast
1:15 AM 12.2 °F -2.5 °F 5.0 °F 73% 29.86 in 10.0 mi NNW 12.7 mph 23.0 mph N/A   Overcast
1:35 AM 12.2 °F -4.3 °F 5.0 °F 73% 29.86 in 10.0 mi NNW 16.1 mph 20.7 mph N/A   Overcast
1:55 AM 12.2 °F -3.7 °F 5.0 °F 73% 29.86 in 10.0 mi NNW 15.0 mph 20.7 mph N/A   Overcast
2:15 AM 12.2 °F -5.8 °F 3.2 °F 67% 29.86 in 10.0 mi NNW 19.6 mph 26.5 mph N/A   Overcast
2:35 AM 12.2 °F -5.3 °F 3.2 °F 67% 29.86 in 10.0 mi NNW 18.4 mph 26.5 mph N/A   Overcast
2:55 AM 10.4 °F -7.2 °F 1.4 °F 67% 29.86 in 10.0 mi NW 17.3 mph 24.2 mph N/A   Overcast
3:15 AM 10.4 °F -7.7 °F 1.4 °F 67% 29.86 in 10.0 mi NNW 18.4 mph 26.5 mph N/A   Overcast
3:35 AM 10.4 °F -7.2 °F 1.4 °F 67% 29.85 in 10.0 mi NNW 17.3 mph 23.0 mph N/A   Overcast
3:55 AM 10.4 °F -7.2 °F 1.4 °F 67% 29.86 in 10.0 mi NNW 17.3 mph 23.0 mph N/A   Overcast
4:15 AM 10.4 °F -7.2 °F 1.4 °F 67% 29.86 in 10.0 mi NNW 17.3 mph 23.0 mph N/A   Overcast
4:35 AM 10.4 °F -4.1 °F 1.4 °F 67% 29.85 in 10.0 mi NNW 11.5 mph - N/A   Overcast
4:55 AM 10.4 °F -6.6 °F 1.4 °F 67% 29.85 in 10.0 mi NW 16.1 mph 20.7 mph N/A   Overcast
5:15 AM 10.4 °F -6.0 °F 1.4 °F 67% 29.85 in 10.0 mi NNW 15.0 mph 20.7 mph N/A   Overcast
5:35 AM 10.4 °F -4.1 °F 1.4 °F 67% 29.86 in 10.0 mi NNW 11.5 mph 17.3 mph N/A   Overcast
6:15 AM 10.4 °F -6.6 °F 1.4 °F 67% 29.85 in 10.0 mi NNW 16.1 mph 23.0 mph N/A   Overcast
6:35 AM 10.4 °F -6.6 °F 1.4 °F 67% 29.85 in 10.0 mi NNW 16.1 mph 21.9 mph N/A   Overcast
6:55 AM 10.4 °F -4.8 °F 1.4 °F 67% 29.85 in 10.0 mi NNW 12.7 mph 18.4 mph N/A   Overcast
7:15 AM 10.4 °F -4.8 °F 1.4 °F 67% 29.85 in 10.0 mi NNW 12.7 mph 24.2 mph N/A   Overcast
7:35 AM 10.4 °F -7.2 °F 1.4 °F 67% 29.85 in 5.0 mi NNW 17.3 mph 23.0 mph N/A Snow Light Snow
7:55 AM 10.4 °F -6.6 °F 1.4 °F 67% 29.85 in 10.0 mi NNW 16.1 mph 21.9 mph N/A   Overcast
8:15 AM 10.4 °F -6.0 °F 1.4 °F 67% 29.84 in 10.0 mi NNW 15.0 mph 18.4 mph N/A   Overcast
8:34 AM 10.4 °F -4.8 °F 1.4 °F 67% 29.84 in 10.0 mi NNW 12.7 mph 19.6 mph N/A   Overcast
8:55 AM 10.4 °F -2.4 °F 1.4 °F 67% 29.84 in 10.0 mi NNW 9.2 mph 16.1 mph N/A   Overcast
9:15 AM 10.4 °F -5.4 °F 1.4 °F 67% 29.85 in 10.0 mi NNW 13.8 mph 21.9 mph N/A   Overcast
9:35 AM 10.4 °F -4.8 °F 1.4 °F 67% 29.84 in 10.0 mi North 12.7 mph 20.7 mph N/A   Overcast
9:55 AM 10.4 °F -4.8 °F 1.4 °F 67% 29.85 in 10.0 mi NNW 12.7 mph 21.9 mph N/A   Overcast
10:15 AM 10.4 °F -2.4 °F 1.4 °F 67% 29.85 in 10.0 mi North 9.2 mph 19.6 mph N/A   Overcast
10:35 AM 10.4 °F -4.1 °F 1.4 °F 67% 29.85 in 10.0 mi North 11.5 mph 21.9 mph N/A   Overcast
10:55 AM 10.4 °F -7.7 °F 1.4 °F 67% 29.84 in 10.0 mi NNW 18.4 mph 23.0 mph N/A   Overcast
11:15 AM 10.4 °F -6.0 °F 1.4 °F 67% 29.83 in 10.0 mi North 15.0 mph 24.2 mph N/A   Overcast
11:35 AM 12.2 °F -5.3 °F 3.2 °F 67% 29.83 in 10.0 mi NNW 18.4 mph 23.0 mph N/A   Overcast
11:55 AM 12.2 °F -4.3 °F 1.4 °F 62% 29.82 in 10.0 mi NNW 16.1 mph 21.9 mph N/A   Overcast
12:14 PM 12.2 °F -3.1 °F 1.4 °F 62% 29.82 in 10.0 mi NNW 13.8 mph 21.9 mph N/A   Overcast
12:35 PM 12.2 °F -2.5 °F 1.4 °F 62% 29.81 in 10.0 mi North 12.7 mph 23.0 mph N/A   Overcast
12:54 PM 12.2 °F -4.3 °F 3.2 °F 67% 29.80 in 10.0 mi NNW 16.1 mph 20.7 mph N/A   Overcast
1:15 PM 12.2 °F -5.3 °F 3.2 °F 67% 29.80 in 7.0 mi NNW 18.4 mph 24.2 mph N/A   Overcast
1:35 PM 12.2 °F -1.8 °F 3.2 °F 67% 29.80 in 10.0 mi NW 11.5 mph 19.6 mph N/A   Overcast
1:55 PM 12.2 °F -3.7 °F 3.2 °F 67% 29.80 in 10.0 mi NNW 15.0 mph 24.2 mph N/A   Overcast
2:15 PM 12.2 °F -4.8 °F 1.4 °F 62% 29.80 in 10.0 mi NNW 17.3 mph 23.0 mph N/A   Overcast
2:35 PM 12.2 °F -4.3 °F 3.2 °F 67% 29.81 in 10.0 mi NW 16.1 mph 20.7 mph N/A   Overcast
2:55 PM 12.2 °F -3.1 °F 1.4 °F 62% 29.82 in 10.0 mi North 13.8 mph 26.5 mph N/A   Mostly Cloudy
3:15 PM 12.2 °F -4.3 °F 1.4 °F 62% 29.82 in 10.0 mi NNW 16.1 mph 21.9 mph N/A   Mostly Cloudy
3:35 PM 12.2 °F -5.3 °F 1.4 °F 62% 29.82 in 10.0 mi NNW 18.4 mph 28.8 mph N/A   Overcast
3:55 PM 12.2 °F -3.1 °F 1.4 °F 62% 29.82 in 10.0 mi NNW 13.8 mph 23.0 mph N/A   Overcast
4:15 PM 12.2 °F -3.7 °F 1.4 °F 62% 29.83 in 10.0 mi NNW 15.0 mph 25.3 mph N/A   Overcast
4:35 PM 12.2 °F -5.8 °F 3.2 °F 67% 29.83 in 10.0 mi NNW 19.6 mph 24.2 mph N/A   Overcast
4:55 PM 12.2 °F -1.0 °F 3.2 °F 67% 29.84 in 10.0 mi NNW 10.4 mph - N/A   Overcast
5:15 PM 12.2 °F -2.5 °F 3.2 °F 67% 29.84 in 10.0 mi NNW 12.7 mph 20.7 mph N/A   Overcast
5:35 PM 12.2 °F -4.3 °F 3.2 °F 67% 29.84 in 10.0 mi NNW 16.1 mph 20.7 mph N/A   Overcast
5:55 PM 12.2 °F -0.2 °F 3.2 °F 67% 29.84 in 10.0 mi NNW 9.2 mph - N/A   Overcast
6:14 PM 12.2 °F -1.8 °F 3.2 °F 67% 29.84 in 10.0 mi NNW 11.5 mph 19.6 mph N/A   Overcast
6:35 PM 12.2 °F -2.5 °F 5.0 °F 73% 29.84 in 10.0 mi NNW 12.7 mph 18.4 mph N/A   Overcast
6:55 PM 12.2 °F -3.7 °F 5.0 °F 73% 29.84 in 10.0 mi North 15.0 mph 25.3 mph N/A   Overcast
7:15 PM 12.2 °F -3.1 °F 5.0 °F 73% 29.84 in 10.0 mi NNW 13.8 mph 20.7 mph N/A Snow Light Snow
7:35 PM 12.2 °F -2.5 °F 5.0 °F 73% 29.85 in 10.0 mi NNW 12.7 mph 17.3 mph N/A Snow Light Snow
7:55 PM 12.2 °F -1.0 °F 5.0 °F 73% 29.85 in 10.0 mi NNW 10.4 mph 16.1 mph N/A Snow Light Snow
8:15 PM 12.2 °F -2.5 °F 5.0 °F 73% 29.86 in 10.0 mi North 12.7 mph 21.9 mph N/A Snow Light Snow
8:35 PM 12.2 °F -0.2 °F 5.0 °F 73% 29.86 in 10.0 mi North 9.2 mph 18.4 mph N/A   Overcast
8:55 PM 12.2 °F -3.1 °F 5.0 °F 73% 29.87 in 10.0 mi NNW 13.8 mph 18.4 mph N/A   Overcast
9:15 PM 12.2 °F -2.5 °F 5.0 °F 73% 29.87 in 10.0 mi NNW 12.7 mph 18.4 mph N/A   Overcast
9:35 PM 12.2 °F -5.8 °F 5.0 °F 73% 29.87 in 10.0 mi NNW 19.6 mph 23.0 mph N/A   Overcast
9:55 PM 12.2 °F -3.7 °F 3.2 °F 67% 29.87 in 10.0 mi North 15.0 mph 20.7 mph N/A   Overcast
10:15 PM 12.2 °F -1.8 °F 3.2 °F 67% 29.87 in 10.0 mi NNW 11.5 mph 18.4 mph N/A   Overcast
10:35 PM 12.2 °F -1.0 °F 5.0 °F 73% 29.88 in 10.0 mi NNW 10.4 mph 21.9 mph N/A   Overcast
10:55 PM 12.2 °F -1.8 °F 5.0 °F 73% 29.88 in 10.0 mi North 11.5 mph 16.1 mph N/A   Overcast
11:15 PM 12.2 °F -0.2 °F 5.0 °F 73% 29.87 in 10.0 mi NNW 9.2 mph - N/A   Overcast
11:35 PM 12.2 °F -2.5 °F 5.0 °F 73% 29.88 in 10.0 mi NNW 12.7 mph 17.3 mph N/A   Overcast
11:55 PM 12.2 °F -1.0 °F 5.0 °F 73% 29.88 in 10.0 mi NNW 10.4 mph 17.3 mph N/A Snow Light Snow